Weather in Veselovka

Russia / Komi Republic     61°28′16″N   51°35′05″E
temp.,
°C
wind,
m/s
gust,
m/s
humid.,
%
clouds,
%
prec.,
mm/h
press.,
hPa
HPBL,
m
13 august, sat
sat1300:00+14wnw513630 0.0 1013912
03:00+11wnw411760 0.0 1015496
06:00+13wnw410690 0.0 1016740
09:00+16nw59490 0.0 10171541
12:00+19wnw583769 0.0 10172585
15:00+18nnw4742100 0.0 10181415
18:00+15nw1156100 0.0 101813
21:00+14wnw246099 0.0 101984
14 august, sun
sun1400:00+11nw24716 0.0 102080
03:00+9nw23782 0.0 102155
06:00+11nnw26670 0.0 1022229
09:00+16nnw24500 0.0 10221105
12:00+18nw343984 0.0 10221872
15:00+19nnw3436100 0.0 10222100
18:00+16nnw22545 0.0 102244
21:00+11nnw11645 0.0 102310
15 august, mon
mon1500:00+9wsw00715 0.0 102310
03:00+8wsw117414 0.0 102410
06:00+12sw23645 0.0 1024129
09:00+16wsw355187 0.0 1024437
12:00+21w45385 0.0 10231665
15:00+22w474063 0.0 10221484
18:00+19w375548 0.0 1022326
21:00+15wnw267319 0.0 1023125
16 august, tue
tue1600:00+12nw22860 0.0 102424
03:00+10nnw24840 0.0 102667
06:00+12n25675 0.0 1027202
09:00+17nnw354425 0.0 1027792
12:00+20nnw353384 0.0 10271279
15:00+21nnw3532100 0.0 10261335
18:00+18nnw115323 0.0 102611
21:00+15ese115584 0.0 102614
17 august, wed
wed1700:00+12s228180 0.3 102638
03:00+11ssw2592100 0.8 1025104
06:00+14ssw269587 0.3 1024177
09:00+20w357353 0.4 1023570
12:00+24wnw46569 0.1 10211545
15:00+27nnw464032 0.4 10202170
18:00+23nw11605 0.0 102011
21:00+17w24824 0.0 102075